| time (UTC) | temp C | wind direction | speed KPH | gust KPH | rain 1hr cm | rain 24hr cm | rain mn cm | humidity % | barometer mb |
| 20260507060100 | 12 | 173 | 0.0 | 1.6 | 0.00 | 0.28 | 0.00 | 86 | 1005.7 |
| 20260507054609 | 12 | 82 | 0.0 | 3.2 | 0.00 | 0.28 | 0.00 | 86 | 1005.9 |
| 20260507053056 | 13 | 60 | 0.0 | 3.2 | 0.00 | 0.28 | 0.00 | 88 | 1006.1 |
| 20260507051554 | 13 | 39 | 0.0 | 1.6 | 0.00 | 0.28 | 0.00 | 89 | 1006.1 |
| 20260507050049 | 13 | 219 | 0.0 | 1.6 | 0.00 | 0.28 | 0.00 | 90 | 1005.8 |
| 20260507044548 | 13 | 219 | 0.0 | 1.6 | 0.00 | 0.28 | 0.00 | 90 | 1005.9 |
| 20260507043045 | 14 | 207 | 0.0 | 1.6 | 0.00 | 0.28 | 0.00 | 90 | 1005.8 |
| 20260507041552 | 14 | 307 | 0.0 | 3.2 | 0.00 | 0.28 | 0.00 | 91 | 1005.7 |
| 20260507040041 | 15 | 317 | 0.0 | 1.6 | 0.00 | 0.28 | 0.00 | 91 | 1005.8 |
| 20260507034540 | 15 | 260 | 0.0 | 3.2 | 0.00 | 0.28 | 0.28 | 91 | 1006.0 |
| 20260507033044 | 15 | 226 | 0.0 | 8.0 | 0.00 | 0.28 | 0.28 | 91 | 1005.8 |
| 20260507031539 | 14 | 245 | 1.6 | 8.0 | 0.00 | 0.28 | 0.28 | 91 | 1005.6 |
| 20260507030041 | 14 | 203 | 3.2 | 9.7 | 0.00 | 0.28 | 0.28 | 91 | 1005.3 |
| 20260507024539 | 14 | 241 | 1.6 | 8.0 | 0.00 | 0.28 | 0.28 | 91 | 1005.4 |
| 20260507023038 | 14 | 212 | 0.0 | 8.0 | 0.00 | 0.28 | 0.28 | 91 | 1005.4 |
| 20260507021537 | 14 | 228 | 1.6 | 8.0 | 0.00 | 0.28 | 0.28 | 91 | 1005.2 |
| 20260507020037 | 14 | 224 | 3.2 | 9.7 | 0.00 | 0.28 | 0.28 | 91 | 1005.4 |
| 20260507014549 | 14 | 217 | 0.0 | 8.0 | 0.00 | 0.28 | 0.28 | 91 | 1005.4 |
| 20260507013043 | 14 | 186 | 0.0 | 12.9 | 0.00 | 0.28 | 0.28 | 91 | 1005.4 |
| 20260507011539 | 14 | 233 | 0.0 | 12.9 | 0.00 | 0.28 | 0.28 | 91 | 1005.7 |
| 20260507010034 | 14 | 216 | 0.0 | 11.3 | 0.00 | 0.28 | 0.28 | 91 | 1005.8 |
| 20260507004533 | 13 | 211 | 4.8 | 11.3 | 0.00 | 0.28 | 0.28 | 91 | 1005.8 |
| 20260507003034 | 13 | 216 | 1.6 | 8.0 | 0.05 | 0.28 | 0.28 | 91 | 1005.8 |
| 20260507001531 | 13 | 216 | 1.6 | 9.7 | 0.05 | 0.28 | 0.28 | 91 | 1005.7 |
| 20260507000032 | 13 | 241 | 4.8 | 12.9 | 0.08 | 0.28 | 0.28 | 91 | 1005.5 |
| 20260506234529 | 14 | 218 | 1.6 | 16.1 | 0.08 | 0.28 | 0.28 | 90 | 1005.3 |
| 20260506233028 | 14 | 251 | 4.8 | 19.3 | 0.03 | 0.23 | 0.23 | 90 | 1005.3 |
| 20260506231525 | 14 | 131 | 0.0 | 9.7 | 0.03 | 0.23 | 0.23 | 90 | 1005.3 |
| 20260506230024 | 14 | 252 | 3.2 | 12.9 | 0.00 | 0.20 | 0.20 | 90 | 1005.4 |
| 20260506224523 | 14 | 323 | 3.2 | 16.1 | 0.00 | 0.20 | 0.20 | 90 | 1005.4 |
| 20260506223021 | 15 | 291 | 4.8 | 20.9 | 0.03 | 0.20 | 0.20 | 90 | 1005.5 |
| 20260506221518 | 15 | 200 | 6.4 | 20.9 | 0.08 | 0.20 | 0.20 | 90 | 1005.7 |
| 20260506220017 | 15 | 172 | 4.8 | 14.5 | 0.10 | 0.20 | 0.20 | 90 | 1005.8 |
| 20260506214515 | 15 | 209 | 3.2 | 14.5 | 0.08 | 0.18 | 0.18 | 89 | 1005.8 |
| 20260506213014 | 15 | 233 | 1.6 | 16.1 | 0.08 | 0.18 | 0.18 | 88 | 1006.0 |
| 20260506211509 | 15 | 208 | 6.4 | 16.1 | 0.05 | 0.13 | 0.13 | 88 | 1006.1 |
| 20260506210008 | 15 | 205 | 3.2 | 17.7 | 0.03 | 0.10 | 0.10 | 87 | 1006.2 |
| 20260506204506 | 15 | 205 | 3.2 | 14.5 | 0.03 | 0.10 | 0.10 | 86 | 1006.3 |
| 20260506203003 | 15 | 201 | 4.8 | 14.5 | 0.05 | 0.10 | 0.10 | 85 | 1006.4 |
| 20260506201500 | 16 | 225 | 6.4 | 19.3 | 0.05 | 0.08 | 0.08 | 84 | 1006.4 |
| 20260506200148 | 16 | 214 | 9.7 | 24.1 | 0.08 | 0.08 | 0.08 | 83 | 1006.3 |
| 20260506194612 | 16 | 247 | 3.2 | 16.1 | 0.08 | 0.08 | 0.08 | 83 | 1006.1 |
| 20260506193055 | 16 | 210 | 11.3 | 25.7 | 0.05 | 0.05 | 0.05 | 80 | 1006.4 |
| 20260506191554 | 17 | 198 | 9.7 | 20.9 | 0.03 | 0.03 | 0.03 | 78 | 1006.5 |
| 20260506190056 | 18 | 204 | 3.2 | 17.7 | 0.00 | 0.00 | 0.00 | 74 | 1006.5 |
| 20260506184555 | 19 | 226 | 3.2 | 22.5 | 0.00 | 0.00 | 0.00 | 69 | 1006.4 |
| 20260506183053 | 20 | 214 | 3.2 | 27.4 | 0.00 | 0.00 | 0.00 | 67 | 1006.6 |
| 20260506181551 | 21 | 315 | 3.2 | 14.5 | 0.00 | 0.00 | 0.00 | 62 | 1006.6 |
| 20260506180053 | 21 | 238 | 4.8 | 32.2 | 0.00 | 0.00 | 0.00 | 60 | 1006.7 |
| 20260506174548 | 21 | 238 | 1.6 | 12.9 | 0.00 | 0.00 | 0.00 | 58 | 1006.8 |
| 20260506173057 | 22 | 200 | 9.7 | 35.4 | 0.00 | 0.00 | 0.00 | 56 | 1006.8 |
| 20260506171552 | 22 | 218 | 11.3 | 35.4 | 0.00 | 0.00 | 0.00 | 56 | 1006.9 |
| 20260506170045 | 23 | 238 | 11.3 | 22.5 | 0.00 | 0.00 | 0.00 | 56 | 1006.7 |
| 20260506164541 | 21 | 253 | 11.3 | 32.2 | 0.00 | 0.00 | 0.00 | 58 | 1007.1 |
| 20260506163046 | 22 | 244 | 4.8 | 25.7 | 0.00 | 0.00 | 0.00 | 57 | 1007.3 |
| 20260506161549 | 22 | 257 | 6.4 | 27.4 | 0.00 | 0.00 | 0.00 | 58 | 1007.5 |
| 20260506160036 | 22 | 206 | 6.4 | 17.7 | 0.00 | 0.00 | 0.00 | 59 | 1007.8 |
| 20260506154534 | 21 | 181 | 6.4 | 16.1 | 0.00 | 0.00 | 0.00 | 60 | 1008.1 |
| 20260506153032 | 22 | 258 | 4.8 | 16.1 | 0.00 | 0.00 | 0.00 | 59 | 1008.2 |
| 20260506151532 | 22 | 200 | 6.4 | 19.3 | 0.00 | 0.00 | 0.00 | 59 | 1008.4 |
| 20260506150034 | 22 | 240 | 9.7 | 25.7 | 0.00 | 0.00 | 0.00 | 58 | 1008.5 |
| 20260506144528 | 21 | 180 | 6.4 | 22.5 | 0.00 | 0.00 | 0.00 | 61 | 1008.5 |
| 20260506143025 | 21 | 158 | 11.3 | 20.9 | 0.00 | 0.00 | 0.00 | 62 | 1008.4 |
| 20260506141523 | 21 | 184 | 8.0 | 20.9 | 0.00 | 0.00 | 0.00 | 64 | 1008.3 |
| 20260506140021 | 20 | 214 | 8.0 | 19.3 | 0.00 | 0.00 | 0.00 | 66 | 1008.4 |
| 20260506134532 | 20 | 268 | 4.8 | 14.5 | 0.00 | 0.00 | 0.00 | 70 | 1008.5 |
| 20260506133013 | 18 | 162 | 3.2 | 12.9 | 0.00 | 0.00 | 0.00 | 72 | 1008.9 |
| 20260506131511 | 18 | 148 | 6.4 | 22.5 | 0.00 | 0.00 | 0.00 | 73 | 1009.2 |
| 20260506130009 | 18 | 208 | 4.8 | 16.1 | 0.00 | 0.00 | 0.00 | 74 | 1009.1 |
| 20260506124511 | 17 | 192 | 4.8 | 20.9 | 0.00 | 0.00 | 0.00 | 75 | 1009.2 |
| 20260506123005 | 17 | 148 | 3.2 | 16.1 | 0.00 | 0.00 | 0.00 | 76 | 1009.4 |
| 20260506121509 | 17 | 243 | 1.6 | 9.7 | 0.00 | 0.00 | 0.00 | 78 | 1009.3 |
| 20260506120009 | 16 | 216 | 4.8 | 12.9 | 0.00 | 0.00 | 0.00 | 79 | 1009.3 |
| 20260506114504 | 16 | 190 | 3.2 | 12.9 | 0.00 | 0.00 | 0.00 | 80 | 1009.6 |
| 20260506113005 | 15 | 236 | 0.0 | 17.7 | 0.00 | 0.00 | 0.00 | 80 | 1009.9 |
| 20260506111622 | 15 | 219 | 6.4 | 16.1 | 0.00 | 0.00 | 0.00 | 80 | 1009.7 |
| 20260506110100 | 15 | 213 | 4.8 | 16.1 | 0.00 | 0.00 | 0.00 | 81 | 1009.5 |
| 20260506104606 | 15 | 220 | 6.4 | 14.5 | 0.00 | 0.00 | 0.00 | 81 | 1009.5 |
| 20260506103105 | 15 | 215 | 4.8 | 16.1 | 0.00 | 0.00 | 0.00 | 81 | 1009.7 |
| 20260506101557 | 15 | 210 | 1.6 | 12.9 | 0.00 | 0.00 | 0.00 | 81 | 1009.7 |
| 20260506100055 | 15 | 224 | 4.8 | 14.5 | 0.00 | 0.00 | 0.00 | 80 | 1009.4 |
| 20260506094555 | 15 | 215 | 6.4 | 11.3 | 0.00 | 0.00 | 0.00 | 80 | 1009.2 |
| 20260506093057 | 15 | 208 | 3.2 | 20.9 | 0.00 | 0.00 | 0.00 | 80 | 1009.4 |
| 20260506091551 | 15 | 188 | 4.8 | 19.3 | 0.00 | 0.00 | 0.00 | 79 | 1009.2 |
| 20260506090049 | 15 | 204 | 1.6 | 16.1 | 0.00 | 0.00 | 0.00 | 79 | 1009.2 |
| 20260506084547 | 15 | 217 | 4.8 | 12.9 | 0.00 | 0.00 | 0.00 | 79 | 1009.4 |
| 20260506083100 | 15 | 238 | 4.8 | 14.5 | 0.00 | 0.00 | 0.00 | 79 | 1009.4 |
| 20260506081548 | 15 | 259 | 4.8 | 19.3 | 0.00 | 0.00 | 0.00 | 78 | 1009.4 |
| 20260506073038 | 16 | 191 | 4.8 | 19.3 | 0.00 | 0.00 | 0.00 | 76 | 1009.4 |
| 20260506071536 | 16 | 183 | 3.2 | 17.7 | 0.00 | 0.00 | 0.00 | 76 | 1009.3 |
| 20260506061535 | 17 | 229 | 3.2 | 20.9 | 0.00 | 0.00 | 0.00 | 72 | 1009.0 |